| time (UTC) | temp F | wind direction | speed MPH | gust MPH | rain 1hr in | rain 24hr in | rain mn in | humidity % | barometer mb |
| 20260505023217 | 39 | 71 | 3.0 | 6.0 | 0.00 | 0.17 | 0.17 | 90 | 1014.9 |
| 20260505022715 | 39 | 119 | 2.0 | 3.0 | 0.00 | 0.17 | 0.17 | 90 | 1015.2 |
| 20260505022212 | 39 | 112 | 3.0 | 3.0 | 0.00 | 0.17 | 0.17 | 91 | 1015.0 |
| 20260505021708 | 39 | 122 | 3.0 | 4.0 | 0.00 | 0.17 | 0.17 | 92 | 1014.8 |
| 20260505021206 | 39 | 18 | 2.0 | 5.0 | 0.00 | 0.17 | 0.17 | 92 | 1014.8 |
| 20260505020701 | 39 | 114 | 2.0 | 2.0 | 0.00 | 0.17 | 0.17 | 92 | 1014.7 |
| 20260505020157 | 39 | 45 | 2.0 | 3.0 | 0.00 | 0.17 | 0.17 | 90 | 1014.5 |
| 20260505015655 | 39 | 87 | 3.0 | 3.0 | 0.00 | 0.17 | 0.17 | 90 | 1014.4 |
| 20260505015151 | 39 | 103 | 4.0 | 4.0 | 0.00 | 0.17 | 0.17 | 88 | 1014.5 |
| 20260505014648 | 39 | 125 | 5.0 | 9.0 | 0.00 | 0.17 | 0.17 | 87 | 1014.1 |
| 20260505014145 | 39 | 124 | 5.0 | 7.0 | 0.00 | 0.17 | 0.17 | 88 | 1014.7 |
| 20260505013642 | 39 | 127 | 5.0 | 9.0 | 0.00 | 0.17 | 0.17 | 86 | 1014.4 |
| 20260505013139 | 40 | 136 | 6.0 | 7.0 | 0.00 | 0.17 | 0.17 | 87 | 1014.4 |
| 20260505012638 | 40 | 120 | 5.0 | 6.0 | 0.00 | 0.17 | 0.17 | 88 | 1014.8 |
| 20260505012134 | 40 | 116 | 3.0 | 6.0 | 0.00 | 0.17 | 0.17 | 89 | 1014.7 |
| 20260505011630 | 40 | 134 | 5.0 | 8.0 | 0.00 | 0.17 | 0.17 | 90 | 1015.0 |
| 20260505011128 | 40 | 152 | 4.0 | 6.0 | 0.00 | 0.17 | 0.17 | 90 | 1015.0 |
| 20260505010628 | 41 | 157 | 4.0 | 6.0 | 0.00 | 0.17 | 0.17 | 90 | 1014.7 |
| 20260505010125 | 41 | 153 | 3.0 | 6.0 | 0.00 | 0.17 | 0.17 | 90 | 1014.9 |
| 20260505005621 | 41 | 96 | 3.0 | 3.0 | 0.00 | 0.17 | 0.17 | 88 | 1014.7 |
| 20260505005118 | 41 | 80 | 3.0 | 3.0 | 0.00 | 0.17 | 0.17 | 88 | 1014.7 |
| 20260505004615 | 41 | 104 | 0.0 | 5.0 | 0.00 | 0.17 | 0.17 | 86 | 1014.7 |
| 20260505004112 | 41 | 105 | 3.0 | 8.0 | 0.00 | 0.17 | 0.17 | 90 | 1014.7 |
| 20260505003609 | 40 | 140 | 4.0 | 6.0 | 0.00 | 0.17 | 0.17 | 93 | 1014.4 |
| 20260505003107 | 40 | 139 | 6.0 | 7.0 | 0.00 | 0.17 | 0.17 | 93 | 1014.7 |
| 20260505002602 | 40 | 138 | 5.0 | 8.0 | 0.02 | 0.17 | 0.17 | 93 | 1015.2 |
| 20260505002101 | 39 | 140 | 5.0 | 6.0 | 0.07 | 0.17 | 0.17 | 92 | 1014.9 |
| 20260505001558 | 39 | 105 | 3.0 | 6.0 | 0.09 | 0.16 | 0.16 | 92 | 1015.6 |
| 20260505001055 | 39 | 124 | 4.0 | 6.0 | 0.12 | 0.15 | 0.15 | 89 | 1015.8 |
| 20260505000552 | 39 | 95 | 2.0 | 3.0 | 0.14 | 0.15 | 0.15 | 88 | 1016.1 |
| 20260505000049 | 39 | 73 | 2.0 | 3.0 | 0.09 | 0.13 | 0.13 | 89 | 1016.1 |
| 20260504235546 | 39 | 34 | 2.0 | 3.0 | 0.07 | 0.13 | 0.13 | 89 | 1016.2 |
| 20260504235043 | 39 | 102 | 1.0 | 4.0 | 0.05 | 0.12 | 0.12 | 88 | 1015.8 |
| 20260504234540 | 39 | 49 | 0.0 | 4.0 | 0.05 | 0.11 | 0.11 | 88 | 1015.8 |
| 20260504234037 | 39 | 219 | 2.0 | 3.0 | 0.05 | 0.11 | 0.11 | 87 | 1015.4 |
| 20260504233532 | 39 | 250 | 2.0 | 3.0 | 0.05 | 0.11 | 0.11 | 86 | 1015.6 |
| 20260504233029 | 39 | 274 | 2.0 | 4.0 | 0.05 | 0.10 | 0.10 | 86 | 1015.2 |
| 20260504232526 | 40 | 45 | 0.0 | 2.0 | 0.05 | 0.10 | 0.10 | 87 | 1015.0 |
| 20260504232024 | 40 | 125 | 2.0 | 3.0 | 0.07 | 0.09 | 0.09 | 88 | 1015.0 |
| 20260504231520 | 40 | 97 | 2.0 | 3.0 | 0.02 | 0.09 | 0.09 | 89 | 1014.9 |
| 20260504231016 | 41 | 124 | 2.0 | 3.0 | 0.00 | 0.08 | 0.08 | 90 | 1014.8 |
| 20260504230513 | 41 | 127 | 2.0 | 2.0 | 0.02 | 0.08 | 0.08 | 90 | 1014.8 |
| 20260504230012 | 40 | 74 | 2.0 | 3.0 | 0.05 | 0.08 | 0.08 | 89 | 1014.5 |
| 20260504225508 | 40 | 104 | 3.0 | 3.0 | 0.05 | 0.08 | 0.08 | 88 | 1014.8 |
| 20260504225006 | 40 | 114 | 0.0 | 1.0 | 0.05 | 0.07 | 0.07 | 86 | 1014.3 |
| 20260504224502 | 41 | 111 | 3.0 | 4.0 | 0.07 | 0.07 | 0.07 | 84 | 1014.4 |
| 20260504223959 | 41 | 86 | 2.0 | 4.0 | 0.12 | 0.06 | 0.06 | 81 | 1014.4 |
| 20260504223455 | 42 | 95 | 1.0 | 4.0 | 0.14 | 0.06 | 0.06 | 79 | 1014.4 |
| 20260504222951 | 44 | 58 | 2.0 | 3.0 | 0.09 | 0.04 | 0.04 | 75 | 1014.0 |
| 20260504222449 | 45 | 75 | 4.0 | 5.0 | 0.09 | 0.04 | 0.04 | 74 | 1014.3 |
| 20260504221946 | 47 | 106 | 2.0 | 3.0 | 0.17 | 0.03 | 0.03 | 67 | 1014.1 |
| 20260504221443 | 50 | 100 | 2.0 | 2.0 | 0.12 | 0.02 | 0.02 | 60 | 1013.9 |
| 20260504220940 | 52 | 35 | 2.0 | 4.0 | 0.00 | 0.00 | 0.00 | 45 | 1013.9 |
| 20260504220436 | 52 | 120 | 3.0 | 4.0 | 0.00 | 0.00 | 0.00 | 42 | 1013.9 |
| 20260504215934 | 52 | 43 | 2.0 | 4.0 | 0.00 | 0.00 | 0.00 | 41 | 1014.0 |
| 20260504215431 | 53 | 129 | 0.0 | 2.0 | 0.00 | 0.00 | 0.00 | 39 | 1013.6 |
| 20260504214927 | 53 | 147 | 2.0 | 4.0 | 0.00 | 0.00 | 0.00 | 39 | 1013.6 |
| 20260504214423 | 53 | 126 | 1.0 | 4.0 | 0.00 | 0.00 | 0.00 | 38 | 1013.6 |
| 20260504213920 | 53 | 135 | 2.0 | 6.0 | 0.00 | 0.00 | 0.00 | 38 | 1013.7 |
| 20260504213416 | 54 | 133 | 4.0 | 4.0 | 0.00 | 0.00 | 0.00 | 38 | 1013.7 |
| 20260504212914 | 54 | 157 | 2.0 | 3.0 | 0.00 | 0.00 | 0.00 | 37 | 1013.9 |
| 20260504212409 | 53 | 43 | 0.0 | 2.0 | 0.00 | 0.00 | 0.00 | 37 | 1013.7 |
| 20260504211908 | 53 | 306 | 2.0 | 2.0 | 0.00 | 0.00 | 0.00 | 38 | 1014.1 |
| 20260504211403 | 53 | 187 | 3.0 | 6.0 | 0.00 | 0.00 | 0.00 | 38 | 1014.3 |
| 20260504210901 | 54 | 133 | 4.0 | 5.0 | 0.00 | 0.00 | 0.00 | 39 | 1014.0 |
| 20260504210358 | 54 | 112 | 2.0 | 4.0 | 0.00 | 0.00 | 0.00 | 38 | 1014.1 |
| 20260504205855 | 54 | 133 | 6.0 | 7.0 | 0.00 | 0.00 | 0.00 | 37 | 1014.4 |
| 20260504205353 | 55 | 310 | 0.0 | 4.0 | 0.00 | 0.00 | 0.00 | 38 | 1014.3 |
| 20260504204850 | 55 | 137 | 4.0 | 6.0 | 0.00 | 0.00 | 0.00 | 36 | 1014.1 |
| 20260504204349 | 56 | 238 | 3.0 | 3.0 | 0.00 | 0.00 | 0.00 | 38 | 1014.4 |
| 20260504203848 | 55 | 42 | 6.0 | 6.0 | 0.00 | 0.00 | 0.00 | 37 | 1014.5 |
| 20260504203344 | 55 | 310 | 2.0 | 4.0 | 0.00 | 0.00 | 0.00 | 41 | 1014.7 |
| 20260504202840 | 55 | 342 | 2.0 | 4.0 | 0.00 | 0.00 | 0.00 | 41 | 1014.7 |
| 20260504202337 | 56 | 271 | 4.0 | 5.0 | 0.00 | 0.00 | 0.00 | 40 | 1014.5 |
| 20260504201834 | 54 | 237 | 4.0 | 6.0 | 0.00 | 0.00 | 0.00 | 41 | 1014.7 |
| 20260504201331 | 55 | 177 | 2.0 | 5.0 | 0.00 | 0.00 | 0.00 | 42 | 1014.7 |
| 20260504200829 | 54 | 224 | 2.0 | 4.0 | 0.00 | 0.00 | 0.00 | 41 | 1014.8 |
| 20260504200325 | 53 | 182 | 2.0 | 4.0 | 0.00 | 0.00 | 0.00 | 45 | 1015.2 |
| 20260504195821 | 53 | 332 | 2.0 | 4.0 | 0.00 | 0.00 | 0.00 | 43 | 1014.9 |
| 20260504195317 | 52 | 258 | 2.0 | 5.0 | 0.00 | 0.00 | 0.00 | 43 | 1014.8 |
| 20260504194814 | 52 | 239 | 1.0 | 5.0 | 0.00 | 0.00 | 0.00 | 43 | 1015.0 |
| 20260504194310 | 51 | 347 | 0.0 | 2.0 | 0.00 | 0.00 | 0.00 | 44 | 1014.9 |
| 20260504193806 | 51 | 230 | 3.0 | 4.0 | 0.00 | 0.00 | 0.00 | 42 | 1015.0 |
| 20260504193304 | 51 | 228 | 0.0 | 3.0 | 0.00 | 0.00 | 0.00 | 42 | 1014.9 |
| 20260504192803 | 51 | 172 | 1.0 | 2.0 | 0.00 | 0.00 | 0.00 | 40 | 1015.3 |
| 20260504192300 | 51 | 289 | 2.0 | 3.0 | 0.00 | 0.00 | 0.00 | 41 | 1015.2 |
| 20260504191759 | 52 | 232 | 2.0 | 3.0 | 0.00 | 0.00 | 0.00 | 40 | 1015.0 |
| 20260504191255 | 53 | 214 | 0.0 | 7.0 | 0.00 | 0.00 | 0.00 | 40 | 1015.2 |
| 20260504190751 | 52 | 158 | 2.0 | 3.0 | 0.00 | 0.00 | 0.00 | 40 | 1015.2 |
| 20260504190247 | 53 | 299 | 1.0 | 3.0 | 0.00 | 0.00 | 0.00 | 39 | 1014.9 |
| 20260504185744 | 52 | 99 | 2.0 | 6.0 | 0.00 | 0.00 | 0.00 | 38 | 1015.2 |
| 20260504185241 | 52 | 296 | 0.0 | 4.0 | 0.00 | 0.00 | 0.00 | 39 | 1014.9 |
| 20260504184737 | 52 | 195 | 1.0 | 2.0 | 0.00 | 0.00 | 0.00 | 39 | 1015.2 |
| 20260504184233 | 53 | 265 | 3.0 | 4.0 | 0.00 | 0.00 | 0.00 | 37 | 1014.9 |
| 20260504183729 | 54 | 247 | 2.0 | 4.0 | 0.00 | 0.00 | 0.00 | 37 | 1014.9 |
| 20260504183226 | 57 | 245 | 2.0 | 6.0 | 0.00 | 0.00 | 0.00 | 34 | 1014.7 |
| 20260504182724 | 58 | 252 | 4.0 | 7.0 | 0.00 | 0.00 | 0.00 | 34 | 1014.7 |
| 20260504182221 | 56 | 248 | 3.0 | 4.0 | 0.00 | 0.00 | 0.00 | 33 | 1014.9 |
| 20260504181719 | 53 | 65 | 3.0 | 5.0 | 0.00 | 0.00 | 0.00 | 29 | 1014.9 |
| 20260504181216 | 53 | 128 | 4.0 | 6.0 | 0.00 | 0.00 | 0.00 | 30 | 1014.9 |
| 20260504180715 | 53 | 81 | 2.0 | 6.0 | 0.00 | 0.00 | 0.00 | 30 | 1015.3 |
| 20260504180213 | 53 | 132 | 5.0 | 9.0 | 0.00 | 0.00 | 0.00 | 32 | 1015.2 |
| 20260504175710 | 53 | 148 | 5.0 | 8.0 | 0.00 | 0.00 | 0.00 | 30 | 1015.0 |
| 20260504175207 | 53 | 117 | 4.0 | 12.0 | 0.00 | 0.00 | 0.00 | 31 | 1014.9 |
| 20260504174705 | 54 | 110 | 2.0 | 4.0 | 0.00 | 0.00 | 0.00 | 30 | 1015.2 |
| 20260504174202 | 54 | 152 | 2.0 | 2.0 | 0.00 | 0.00 | 0.00 | 30 | 1015.0 |
| 20260504173658 | 54 | 97 | 2.0 | 7.0 | 0.00 | 0.00 | 0.00 | 30 | 1015.3 |
| 20260504173156 | 55 | 147 | 3.0 | 3.0 | 0.00 | 0.00 | 0.00 | 29 | 1015.3 |
| 20260504172652 | 55 | 22 | 2.0 | 2.0 | 0.00 | 0.00 | 0.00 | 31 | 1015.4 |
| 20260504172149 | 55 | 214 | 0.0 | 5.0 | 0.00 | 0.00 | 0.00 | 30 | 1015.2 |
| 20260504171645 | 55 | 251 | 0.0 | 3.0 | 0.00 | 0.00 | 0.00 | 29 | 1015.0 |
| 20260504171143 | 57 | 198 | 2.0 | 3.0 | 0.00 | 0.00 | 0.00 | 27 | 1015.6 |
| 20260504170639 | 58 | 116 | 4.0 | 5.0 | 0.00 | 0.00 | 0.00 | 26 | 1015.3 |
| 20260504170136 | 57 | 112 | 2.0 | 8.0 | 0.00 | 0.00 | 0.00 | 28 | 1015.7 |
| 20260504151028 | 49 | 279 | 3.0 | 9.0 | 0.00 | 0.00 | 0.00 | 37 | 1016.6 |
| 20260504150525 | 49 | 115 | 4.0 | 7.0 | 0.00 | 0.00 | 0.00 | 37 | 1016.5 |
| 20260504140956 | 48 | 138 | 4.0 | 6.0 | 0.00 | 0.00 | 0.00 | 35 | 1016.5 |
| 20260504140453 | 48 | 130 | 1.0 | 4.0 | 0.00 | 0.00 | 0.00 | 34 | 1016.7 |
| 20260504130418 | 48 | 162 | 1.0 | 9.0 | 0.00 | 0.00 | 0.00 | 33 | 1015.9 |
| 20260504110305 | 37 | 84 | 2.0 | 3.0 | 0.00 | 0.00 | 0.00 | 52 | 1016.3 |
| 20260504100223 | 38 | 119 | 2.0 | 3.0 | 0.00 | 0.00 | 0.00 | 51 | 1016.5 |
| 20260504081616 | 37 | 104 | 3.0 | 4.0 | 0.00 | 0.00 | 0.00 | 54 | 1017.4 |
| 20260504081111 | 37 | 128 | 3.0 | 3.0 | 0.00 | 0.00 | 0.00 | 53 | 1017.2 |
| 20260504080609 | 38 | 135 | 4.0 | 4.0 | 0.00 | 0.00 | 0.00 | 52 | 1017.5 |
| 20260504080105 | 38 | 102 | 3.0 | 4.0 | 0.00 | 0.00 | 0.00 | 50 | 1017.5 |
| 20260504050421 | 42 | 95 | 2.0 | 4.0 | 0.00 | 0.00 | 0.00 | 48 | 1018.4 |
| 20260504045918 | 41 | 94 | 2.0 | 4.0 | 0.00 | 0.00 | 0.00 | 50 | 1018.8 |
| 20260504045414 | 42 | 124 | 3.0 | 3.0 | 0.00 | 0.00 | 0.00 | 51 | 1018.4 |
| 20260504044910 | 42 | 128 | 0.0 | 4.0 | 0.00 | 0.00 | 0.00 | 50 | 1018.7 |
| 20260504044408 | 42 | 97 | 2.0 | 4.0 | 0.00 | 0.00 | 0.00 | 48 | 1018.8 |
| 20260504043905 | 42 | 113 | 3.0 | 4.0 | 0.00 | 0.00 | 0.00 | 48 | 1019.1 |
| 20260504043402 | 42 | 101 | 2.0 | 3.0 | 0.00 | 0.00 | 0.00 | 49 | 1018.8 |
| 20260504042900 | 42 | 112 | 3.0 | 3.0 | 0.00 | 0.00 | 0.00 | 49 | 1018.7 |
| 20260504042355 | 42 | 103 | 4.0 | 4.0 | 0.00 | 0.00 | 0.00 | 49 | 1018.9 |
| 20260504041852 | 42 | 99 | 3.0 | 4.0 | 0.00 | 0.00 | 0.00 | 49 | 1019.1 |
| 20260504041348 | 42 | 96 | 3.0 | 4.0 | 0.00 | 0.00 | 0.00 | 50 | 1018.8 |
| 20260504040845 | 42 | 113 | 3.0 | 5.0 | 0.00 | 0.00 | 0.00 | 50 | 1018.8 |
| 20260504040342 | 42 | 87 | 2.0 | 4.0 | 0.00 | 0.00 | 0.00 | 50 | 1018.7 |
| 20260504035838 | 42 | 106 | 3.0 | 4.0 | 0.00 | 0.00 | 0.00 | 53 | 1018.9 |
| 20260504035336 | 42 | 107 | 2.0 | 4.0 | 0.00 | 0.00 | 0.00 | 52 | 1019.3 |
| 20260504034832 | 42 | 82 | 2.0 | 3.0 | 0.00 | 0.00 | 0.00 | 52 | 1018.9 |
| 20260504034330 | 42 | 123 | 4.0 | 4.0 | 0.00 | 0.00 | 0.00 | 51 | 1018.9 |
| 20260504033827 | 42 | 92 | 4.0 | 4.0 | 0.00 | 0.00 | 0.00 | 52 | 1018.9 |
| 20260504033325 | 42 | 112 | 3.0 | 4.0 | 0.00 | 0.00 | 0.00 | 52 | 1019.1 |
| 20260504032821 | 42 | 114 | 2.0 | 4.0 | 0.00 | 0.00 | 0.00 | 52 | 1018.9 |
| 20260504032319 | 43 | 114 | 3.0 | 4.0 | 0.00 | 0.00 | 0.00 | 51 | 1018.9 |
| 20260504031815 | 43 | 127 | 4.0 | 4.0 | 0.00 | 0.00 | 0.00 | 50 | 1018.9 |
| 20260504031313 | 43 | 88 | 4.0 | 4.0 | 0.00 | 0.00 | 0.00 | 49 | 1018.9 |
| 20260504030809 | 43 | 138 | 3.0 | 5.0 | 0.00 | 0.00 | 0.00 | 50 | 1018.9 |
| 20260504030306 | 43 | 110 | 4.0 | 4.0 | 0.00 | 0.00 | 0.00 | 49 | 1019.1 |
| 20260504025802 | 44 | 111 | 2.0 | 3.0 | 0.00 | 0.00 | 0.00 | 50 | 1018.9 |
| 20260504025259 | 44 | 98 | 2.0 | 3.0 | 0.00 | 0.00 | 0.00 | 47 | 1018.8 |
| 20260504024755 | 44 | 94 | 2.0 | 3.0 | 0.00 | 0.00 | 0.00 | 47 | 1019.1 |
| 20260504024252 | 45 | 94 | 2.0 | 3.0 | 0.00 | 0.00 | 0.00 | 48 | 1018.8 |
| 20260504023749 | 45 | 124 | 3.0 | 3.0 | 0.00 | 0.00 | 0.00 | 46 | 1018.8 |